User: anonymous   Login
Location: Alumbaugh
(37.5976°N, 83.9299°W)
Time: 22:53:56
(UTC+00:00)
Language:

DOVE 4 - Orbit

View from above orbital plane
View from above orbital plane
View from above satellite
View from above satellite

Ground track
Ground track

The orbit data is extracted from the following two-line orbital elements,

1 39430U 13066Q   23090.48826529  .00003162  00000-0  55838-3 0  9997
2 39430  97.7877 346.1437 0145229 218.7919 140.2757 14.61434525498196
Epoch (UTC): 31 March 2023 11:43:06
Eccentricity: 0.0145229
inclination: 97.7877°
perigee height: 586 km
apogee height: 791 km
right ascension of ascending node: 346.1437°
argument of perigee: 218.7919°
revolutions per day: 14.61434525
mean anomaly at epoch: 140.2757°
orbit number at epoch: 49819

The dashed part of the orbit path shows where the satellite is in the earth's shadow,  

DLR